[[{"header":{"parameterUnit":"m.s-1","parameterCategory":1,"la1":30.2991,"la2":30.254,"lo1":-89.0895,"lo2":-89.0444,"dy":0.0017,"dx":0.0017,"nx":28,"ny":28,"refTime":"2023-09-08T03:00:00:Z","depth":0,"parameterNumber":2,"parameterNumberName":"U-component_of_WINDS"},"data":[0,0,0,0,0,0,0,0,0,0,0,0,0,0,0,0,0,0,0,0,0,0,0,0,0,0,0,0,0,0,0,0,0,0,0,0,0,0,0,0,0,0,0,0,0,0,0,0,0,0,0,0,0,0,0,0,0,0,3.6161,3.6163,0,3.6308,3.631,3.6312,3.6293,3.629,3.6288,3.6286,3.6437,3.6444,3.645,0,0,0,0,0,0,0,0,0,0,0,0,0,3.5867,3.5872,3.6161,3.6163,3.6165,3.6308,3.631,3.6312,3.6293,3.629,3.6287,3.6284,3.6435,3.6443,3.645,0,0,0,0,0,0,0,0,0,0,0,0,0,3.6002,3.5874,3.6161,3.6173,3.6175,3.6308,3.631,3.6313,3.6294,3.629,3.6286,3.6283,3.6433,3.6442,3.6451,3.6582,0,0,3.648,3.6484,0,0,0,0,0,0,0,0,3.5995,3.6013,3.6169,3.6172,3.6175,3.6278,3.6262,3.6403,3.6295,3.6249,3.6285,3.6281,3.6388,3.64,3.6436,3.6589,3.6596,3.6481,3.6487,3.6491,3.6494,0,0,0,0,0,0,0,3.5985,3.6007,3.6219,3.6171,3.6175,3.6172,3.6187,3.6289,3.6337,3.6252,3.6251,3.6269,3.6389,3.6427,3.6439,3.6598,3.6481,3.6489,3.6495,3.6499,3.6869,3.6873,0,0,0,0,0,0,3.5973,3.5999,3.6215,3.6224,3.6074,3.618,3.6197,3.6249,3.6335,3.6345,3.6272,3.6268,3.6413,3.6428,3.6445,3.6605,3.6491,3.65,3.6505,3.6865,3.687,3.6874,0,0,0,0,0,0,3.5966,3.5992,3.6209,3.6111,3.6139,3.6189,3.6247,3.6254,3.6292,3.635,3.6359,3.6302,3.641,3.6431,3.6549,3.661,3.6504,3.6512,3.686,3.6866,3.6872,3.6926,0,0,0,0,0,0,3.5958,3.599,3.6039,3.6113,3.6144,3.6309,3.6251,3.6259,3.6308,3.6304,3.6381,3.639,3.6409,3.6535,3.6558,3.6621,3.652,3.6855,3.6863,3.687,3.6919,3.6933,3.6946,0,0,0,0,0,3.5948,3.6048,3.6042,3.6068,3.6206,3.6313,3.6331,3.635,3.6313,3.6364,3.6402,3.6388,3.66,3.6547,3.6573,3.664,3.6851,3.6861,3.687,3.6913,3.6931,3.6945,0,0,0,0,0,0,3.598,3.6058,3.6051,3.6178,3.6239,3.6309,3.6373,3.6368,3.644,3.6433,3.6455,3.6473,3.6592,3.6627,3.6567,3.6773,3.672,3.6736,3.6744,3.6762,3.6775,3.6764,3.6528,0,0,0,0,0,3.6002,3.6081,3.6145,3.6251,3.6282,3.6323,3.637,3.638,3.6444,3.6469,3.6516,3.6579,3.666,3.6713,3.679,3.6924,3.6942,3.6984,3.6997,3.7008,3.7021,3.7097,3.7117,3.6905,3.6905,3.6905,0,0,3.6048,3.61,3.6149,3.6259,3.6307,3.639,3.6344,3.6433,3.6495,3.6483,3.6597,3.6633,3.6706,3.6832,3.6891,3.6866,3.7083,3.702,3.7028,3.7035,3.7108,3.7128,3.7146,3.6912,3.6911,3.691,0,0,3.6174,3.6221,3.6316,3.6366,3.644,3.6467,3.6489,3.6561,3.6585,3.67,3.6693,3.6768,3.6906,3.6959,3.7004,3.7154,3.7145,3.7179,3.7248,3.7322,3.7339,3.7354,3.7409,3.7428,3.7191,3.7192,3.7192,0,3.6222,3.6346,3.6365,3.6456,3.6506,3.6499,3.6596,3.6643,3.6739,3.6774,3.6745,3.6921,3.6969,3.7109,3.7146,3.7182,3.7211,3.717,3.7335,3.735,3.7364,3.7417,3.7438,3.7195,3.7195,3.7194,3.7194,0,3.6402,3.6489,3.6556,3.6649,3.6707,3.68,3.6835,3.6891,3.6897,3.6927,3.7046,3.7104,3.7194,3.7228,3.7234,3.7371,3.7353,3.733,3.7278,3.7388,3.7438,3.7458,3.7201,3.7199,3.7198,3.7197,0,0,3.6551,3.6656,3.668,3.6724,3.6806,3.6874,3.6968,3.7057,3.7105,3.7172,3.7253,3.7372,3.7352,3.7403,3.7416,3.748,3.7598,3.7449,3.7451,3.7476,3.7754,3.7772,3.7795,3.7593,3.7597,3.76,3.7749,0,3.6687,3.6852,3.6874,3.7021,3.7103,3.7099,3.7182,3.7242,3.7274,3.7349,3.7384,3.7469,3.7435,3.7466,3.753,3.757,3.7654,3.756,3.767,3.7673,3.7652,3.7821,3.7839,3.7976,3.7768,3.7772,3.7774,0,3.6866,3.6939,3.7095,3.7168,3.7203,3.7277,3.7361,3.7432,3.7502,3.7521,3.758,3.7585,3.7684,3.7629,3.7768,3.7703,3.775,3.7777,3.7782,3.7793,3.773,3.7837,3.802,3.8041,3.7805,3.7802,3.78,0,3.6961,3.7098,3.7209,3.7246,3.7335,3.7387,3.7427,3.7493,3.7546,3.762,3.7655,3.774,3.7787,3.7853,3.7882,3.7839,3.802,3.7967,3.804,3.804,3.8078,3.8075,3.8272,3.8107,3.8107,3.8107,3.8106,0,3.7109,3.7205,3.7253,3.7322,3.743,3.7455,3.7562,3.76,3.7659,3.7736,3.7739,3.7811,3.7845,3.7924,3.7947,3.806,3.8081,3.81,3.8105,3.81,3.8098,3.8131,3.8122,3.8112,3.8111,3.811,3.8109,0,3.7233,3.7269,3.7391,3.7465,3.7486,3.7563,3.7628,3.7695,3.7727,3.7825,3.785,3.7901,3.7994,3.8029,3.8143,3.8159,3.8289,3.8287,3.8266,3.8267,3.8339,3.8332,3.8565,3.8597,3.841,3.8412,3.8413,0,3.7326,3.74,3.7483,3.7535,3.7576,3.7659,3.7714,3.7742,3.7799,3.7886,3.7943,3.8036,3.8112,3.8261,3.8309,3.8396,3.8396,3.8472,3.8409,3.8403,3.8399,3.8394,3.8403,3.8483,3.8485,3.8487,3.8488,0,3.7487,3.7502,3.758,3.7665,3.773,3.7799,3.7865,3.7908,3.7947,3.8011,3.8106,3.8165,3.8281,3.8374,3.8465,3.8507,3.8505,3.8507,3.8529,3.8525,3.851,3.8521,3.8298,3.8502,3.85,3.8499,3.8498,3.8498,3.7599,3.7666,3.7735,3.7823,3.7876,3.7939,3.8007,3.8048,3.8128,3.8225,3.8237,3.834,3.8411,3.8532,3.8579,3.8661,3.8641,3.8672,3.868,3.8688,3.8693,3.8497,3.8677,3.8677,3.8677,3.8676,3.8676,0,3.7762,3.7807,3.7887,3.7981,3.8051,3.8042,3.8117,3.8176,3.8266,3.8332,3.8407,3.8518,3.8608,3.8664,3.8756,3.8811,3.8813,3.8835,3.8831,3.8842,3.8705,3.8678,3.8832,3.8832,3.8832,3.8832,3.8832,3.8832,3.7855,3.7967,3.7991,3.8131,3.8176,3.8276,3.8319,3.8378,3.8431,3.8555,3.863,3.8666,3.8729,3.8826,3.891,3.8924,3.8959,3.8982,3.8995,3.8867,3.8851,3.8835,3.881,3.8989,3.899,3.9125,3.9126,3.9127]},{"header":{"parameterUnit":"m.s-1","parameterCategory":1,"la1":30.2991,"la2":30.254,"lo1":-89.0895,"lo2":-89.0444,"dy":0.0017,"dx":0.0017,"nx":28,"ny":28,"refTime":"2023-09-08T03:00:00:Z","depth":0,"parameterNumber":3,"parameterNumberName":"V-component_of_WINDS"},"data":[0,0,0,0,0,0,0,0,0,0,0,0,0,0,0,0,0,0,0,0,0,0,0,0,0,0,0,0,0,0,0,0,0,0,0,0,0,0,0,0,0,0,0,0,0,0,0,0,0,0,0,0,0,0,0,0,0,0,-2.2565,-2.2565,0,-2.2634,-2.2634,-2.2635,-2.2649,-2.2648,-2.2648,-2.2647,-2.2714,-2.2717,-2.2719,0,0,0,0,0,0,0,0,0,0,0,0,0,-2.2441,-2.2443,-2.2564,-2.2565,-2.2566,-2.2633,-2.2634,-2.2635,-2.2649,-2.2648,-2.2648,-2.2647,-2.2714,-2.2716,-2.2719,0,0,0,0,0,0,0,0,0,0,0,0,0,-2.2501,-2.2444,-2.2564,-2.2581,-2.2583,-2.2633,-2.2634,-2.2636,-2.2649,-2.2648,-2.2647,-2.2647,-2.2713,-2.2716,-2.2719,-2.2756,0,0,-2.273,-2.2731,0,0,0,0,0,0,0,0,-2.2497,-2.2505,-2.2578,-2.258,-2.2583,-2.2632,-2.2616,-2.2676,-2.2649,-2.2624,-2.2647,-2.2646,-2.2687,-2.2693,-2.2707,-2.276,-2.2762,-2.273,-2.2732,-2.2734,-2.2735,0,0,0,0,0,0,0,-2.2493,-2.2502,-2.2592,-2.2579,-2.2582,-2.2584,-2.2592,-2.2627,-2.2659,-2.2626,-2.2627,-2.2635,-2.2688,-2.2704,-2.2709,-2.2763,-2.273,-2.2733,-2.2735,-2.2737,-2.2849,-2.285,0,0,0,0,0,0,-2.2487,-2.2499,-2.259,-2.2594,-2.2537,-2.2587,-2.2596,-2.2617,-2.2659,-2.2664,-2.2636,-2.2636,-2.2699,-2.2705,-2.2711,-2.2757,-2.2734,-2.2737,-2.2739,-2.2848,-2.2849,-2.285,0,0,0,0,0,0,-2.2484,-2.2495,-2.2587,-2.2547,-2.2559,-2.259,-2.2614,-2.2619,-2.2634,-2.2666,-2.2672,-2.2646,-2.2698,-2.2707,-2.2745,-2.276,-2.2738,-2.2742,-2.2847,-2.2849,-2.285,-2.2849,0,0,0,0,0,0,-2.248,-2.2494,-2.2509,-2.2547,-2.2561,-2.262,-2.2615,-2.262,-2.264,-2.2641,-2.2677,-2.2683,-2.2698,-2.274,-2.2749,-2.2764,-2.2744,-2.2846,-2.2848,-2.2849,-2.2848,-2.285,-2.2852,0,0,0,0,0,-2.2476,-2.2505,-2.2509,-2.252,-2.258,-2.2621,-2.2629,-2.2647,-2.2642,-2.2656,-2.2677,-2.2681,-2.2757,-2.2744,-2.2754,-2.277,-2.2845,-2.2847,-2.2849,-2.2847,-2.285,-2.2852,0,0,0,0,0,0,-2.2466,-2.251,-2.2516,-2.2558,-2.2586,-2.2623,-2.2643,-2.265,-2.2679,-2.2678,-2.2698,-2.2706,-2.2744,-2.2761,-2.2746,-2.2808,-2.2801,-2.2805,-2.2795,-2.2798,-2.2801,-2.2795,-2.2747,0,0,0,0,0,-2.2469,-2.25,-2.2536,-2.257,-2.2584,-2.2611,-2.2629,-2.2641,-2.267,-2.2682,-2.2705,-2.2733,-2.2762,-2.2782,-2.2811,-2.2851,-2.2859,-2.2867,-2.2869,-2.2871,-2.2874,-2.2896,-2.29,-2.2857,-2.2857,-2.2857,0,0,-2.2475,-2.2503,-2.2521,-2.2569,-2.2592,-2.2622,-2.2621,-2.2653,-2.2675,-2.2686,-2.2725,-2.2743,-2.2774,-2.2814,-2.2832,-2.2829,-2.2888,-2.2874,-2.2875,-2.2877,-2.2898,-2.2902,-2.2906,-2.2859,-2.2858,-2.2858,0,0,-2.2501,-2.2526,-2.2557,-2.258,-2.2616,-2.2634,-2.2641,-2.2678,-2.2691,-2.273,-2.2739,-2.2765,-2.2816,-2.2838,-2.2856,-2.2892,-2.2896,-2.2901,-2.2911,-2.2933,-2.2936,-2.2939,-2.2951,-2.2955,-2.2904,-2.2904,-2.2904,0,-2.2504,-2.2551,-2.2572,-2.2603,-2.2624,-2.2637,-2.2668,-2.2689,-2.2732,-2.2745,-2.2742,-2.2806,-2.2829,-2.2873,-2.2882,-2.2896,-2.2904,-2.2896,-2.2934,-2.2937,-2.294,-2.2952,-2.2956,-2.2904,-2.2904,-2.2904,-2.2904,0,-2.2552,-2.2584,-2.2605,-2.2647,-2.267,-2.2701,-2.2725,-2.2746,-2.2756,-2.2774,-2.2813,-2.2841,-2.2875,-2.2887,-2.2897,-2.2933,-2.293,-2.293,-2.2923,-2.2944,-2.2955,-2.296,-2.2904,-2.2904,-2.2904,-2.2904,0,0,-2.2573,-2.2627,-2.2634,-2.2653,-2.2693,-2.2718,-2.275,-2.2785,-2.2802,-2.2831,-2.2857,-2.29,-2.2901,-2.2921,-2.2933,-2.2952,-2.2978,-2.295,-2.2951,-2.2953,-2.3019,-2.3018,-2.3022,-2.2982,-2.2983,-2.2983,-2.3016,0,-2.2603,-2.2661,-2.2681,-2.2728,-2.2758,-2.2771,-2.2799,-2.2826,-2.2843,-2.287,-2.2889,-2.292,-2.2918,-2.2931,-2.295,-2.297,-2.2991,-2.2969,-2.3005,-2.3006,-2.2996,-2.3028,-2.3028,-2.3057,-2.302,-2.3021,-2.3021,0,-2.2647,-2.2677,-2.2728,-2.2765,-2.2778,-2.2802,-2.2836,-2.2862,-2.2893,-2.2904,-2.2927,-2.2939,-2.2971,-2.2963,-2.3007,-2.2991,-2.3007,-2.302,-2.3021,-2.3024,-2.3014,-2.3031,-2.3067,-2.3071,-2.3029,-2.3028,-2.3028,0,-2.2656,-2.271,-2.2747,-2.2763,-2.2807,-2.2824,-2.2842,-2.2873,-2.2893,-2.2922,-2.2935,-2.2968,-2.2985,-2.301,-2.3029,-2.3021,-2.3071,-2.3064,-2.3081,-2.308,-2.309,-2.3089,-2.3127,-2.3102,-2.3102,-2.3102,-2.3101,0,-2.2687,-2.2717,-2.2752,-2.2775,-2.2809,-2.2831,-2.2863,-2.2883,-2.291,-2.2936,-2.2949,-2.2973,-2.2998,-2.3024,-2.304,-2.3074,-2.3082,-2.3091,-2.3095,-2.3089,-2.3088,-2.3099,-2.3097,-2.3103,-2.3102,-2.3102,-2.3102,0,-2.2703,-2.2728,-2.2769,-2.2807,-2.2818,-2.2841,-2.2873,-2.2895,-2.2914,-2.2947,-2.2956,-2.2985,-2.3017,-2.3039,-2.308,-2.3091,-2.3127,-2.3131,-2.3117,-2.3119,-2.3133,-2.3131,-2.3179,-2.3186,-2.3157,-2.3157,-2.3158,0,-2.2721,-2.2745,-2.2786,-2.2805,-2.2824,-2.2854,-2.2875,-2.2898,-2.2919,-2.2956,-2.2973,-2.3007,-2.3035,-2.3086,-2.311,-2.3141,-2.3145,-2.316,-2.315,-2.3144,-2.3144,-2.3142,-2.3144,-2.3161,-2.3161,-2.3161,-2.3161,0,-2.275,-2.2761,-2.2791,-2.2826,-2.2851,-2.2878,-2.2906,-2.2921,-2.2948,-2.2971,-2.3005,-2.3027,-2.3069,-2.3102,-2.3136,-2.3154,-2.3162,-2.3165,-2.317,-2.3164,-2.3155,-2.316,-2.312,-2.3163,-2.3163,-2.3163,-2.3163,-2.3163,-2.2767,-2.2789,-2.2821,-2.2854,-2.2878,-2.2904,-2.2926,-2.2948,-2.2977,-2.3015,-2.3026,-2.3061,-2.3091,-2.3138,-2.3156,-2.3183,-2.3182,-2.319,-2.3192,-2.3193,-2.3193,-2.3152,-2.319,-2.319,-2.319,-2.319,-2.319,0,-2.2796,-2.2818,-2.2848,-2.2887,-2.2913,-2.292,-2.2951,-2.2972,-2.3003,-2.3031,-2.3058,-2.3097,-2.3129,-2.3156,-2.3189,-2.3205,-2.321,-2.3213,-2.3211,-2.3215,-2.3192,-2.3184,-2.3209,-2.3209,-2.3209,-2.3209,-2.3209,-2.3209,-2.2814,-2.2851,-2.2866,-2.2914,-2.2936,-2.2971,-2.2988,-2.3012,-2.3034,-2.3077,-2.3104,-2.3122,-2.3149,-2.3184,-2.3214,-2.3221,-2.3232,-2.3234,-2.3242,-2.3219,-2.3217,-2.3215,-2.3207,-2.3237,-2.3237,-2.3263,-2.3263,-2.3263]}]]